Time,TemperatureF,DewpointF,PressureIn,WindDirection,WindDirectionDegrees,WindSpeedMPH,WindSpeedGustMPH,Humidity,HourlyPrecipIn,Conditions,Clouds,dailyrainin,SoftwareType,DateUTC
2013-07-04 00:05:00,75.7,67.0,30.73,WSW,258,0.0,-999.0,75,-99.99,,,0.00,weatherlink.com 1.10,2013-07-04 05:05:00,
2013-07-04 00:20:00,75.7,67.0,30.73,WSW,258,0.0,-999.0,75,-99.99,,,0.00,weatherlink.com 1.10,2013-07-04 05:20:00,
2013-07-04 00:35:00,75.8,67.0,30.73,WSW,258,0.0,-999.0,75,-99.99,,,0.00,weatherlink.com 1.10,2013-07-04 05:35:00,
2013-07-04 00:50:00,75.9,67.0,30.73,WSW,258,0.0,-999.0,75,-99.99,,,0.00,weatherlink.com 1.10,2013-07-04 05:50:00,
2013-07-04 01:05:00,75.7,68.0,30.73,WSW,258,0.0,-999.0,76,-99.99,,,0.00,weatherlink.com 1.10,2013-07-04 06:05:00,
2013-07-04 01:20:00,75.4,67.0,30.73,WSW,258,0.0,-999.0,76,-99.99,,,0.00,weatherlink.com 1.10,2013-07-04 06:20:00,
2013-07-04 01:35:00,75.1,67.0,30.72,WSW,258,0.0,-999.0,77,-99.99,,,0.00,weatherlink.com 1.10,2013-07-04 06:35:00,
2013-07-04 01:50:00,74.8,67.0,30.73,WSW,258,0.0,-999.0,77,-99.99,,,0.00,weatherlink.com 1.10,2013-07-04 06:50:00,
2013-07-04 02:05:00,74.6,68.0,30.72,WSW,258,0.0,-999.0,79,-99.99,,,0.00,weatherlink.com 1.10,2013-07-04 07:05:00,
2013-07-04 02:20:00,74.2,68.0,30.72,WSW,258,0.0,-999.0,80,-99.99,,,0.00,weatherlink.com 1.10,2013-07-04 07:20:00,
2013-07-04 02:35:00,73.5,67.0,30.72,WSW,258,0.0,-999.0,81,-99.99,,,0.00,weatherlink.com 1.10,2013-07-04 07:35:00,
2013-07-04 02:50:00,72.8,67.0,30.72,WSW,258,0.0,-999.0,82,-99.99,,,0.00,weatherlink.com 1.10,2013-07-04 07:50:00,
2013-07-04 03:05:00,72.4,67.0,30.71,WSW,258,0.0,-999.0,83,-99.99,,,0.00,weatherlink.com 1.10,2013-07-04 08:05:00,
2013-07-04 03:20:00,71.8,66.0,30.71,WSW,258,0.0,-999.0,83,-99.99,,,0.00,weatherlink.com 1.10,2013-07-04 08:20:00,
2013-07-04 03:35:00,71.3,66.0,30.70,WSW,258,0.0,-999.0,83,-99.99,,,0.00,weatherlink.com 1.10,2013-07-04 08:35:00,
2013-07-04 03:50:00,71.1,66.0,30.71,WSW,258,0.0,-999.0,83,-99.99,,,0.00,weatherlink.com 1.10,2013-07-04 08:50:00,
2013-07-04 04:05:00,71.1,66.0,30.71,WSW,258,0.0,-999.0,84,-99.99,,,0.00,weatherlink.com 1.10,2013-07-04 09:05:00,
2013-07-04 04:20:00,71.4,66.0,30.71,WSW,258,0.0,-999.0,83,-99.99,,,0.00,weatherlink.com 1.10,2013-07-04 09:20:00,
2013-07-04 04:35:00,71.8,66.0,30.70,NNE,22,0.0,-999.0,83,-99.99,,,0.00,weatherlink.com 1.10,2013-07-04 09:35:00,
2013-07-04 04:51:00,71.9,66.0,30.71,NNE,22,0.0,-999.0,81,-99.99,,,0.00,weatherlink.com 1.10,2013-07-04 09:51:00,
2013-07-04 05:06:00,72.1,66.0,30.70,NNE,22,0.0,-999.0,81,-99.99,,,0.00,weatherlink.com 1.10,2013-07-04 10:06:00,
2013-07-04 05:21:00,72.3,66.0,30.71,ENE,61,1.0,-999.0,81,-99.99,,,0.00,weatherlink.com 1.10,2013-07-04 10:21:00,
2013-07-04 05:36:00,72.4,66.0,30.71,ENE,61,0.0,-999.0,80,-99.99,,,0.00,weatherlink.com 1.10,2013-07-04 10:36:00,
2013-07-04 05:50:00,72.1,66.0,30.71,ENE,61,0.0,-999.0,81,-99.99,,,0.00,weatherlink.com 1.10,2013-07-04 10:50:00,
2013-07-04 06:05:00,71.3,66.0,30.71,ENE,61,0.0,-999.0,82,-99.99,,,0.00,weatherlink.com 1.10,2013-07-04 11:05:00,
2013-07-04 06:21:00,70.8,65.0,30.71,ENE,61,0.0,-999.0,82,-99.99,,,0.00,weatherlink.com 1.10,2013-07-04 11:21:00,
2013-07-04 06:35:00,70.2,65.0,30.72,ENE,61,0.0,-999.0,83,-99.99,,,0.00,weatherlink.com 1.10,2013-07-04 11:35:00,
2013-07-04 06:51:00,69.6,65.0,30.72,ENE,61,0.0,-999.0,84,-99.99,,,0.00,weatherlink.com 1.10,2013-07-04 11:51:00,
2013-07-04 07:06:00,69.4,65.0,30.73,ENE,61,0.0,-999.0,86,-99.99,,,0.00,weatherlink.com 1.10,2013-07-04 12:06:00,
2013-07-04 07:21:00,70.1,66.0,30.74,ENE,61,0.0,-999.0,86,-99.99,,,0.00,weatherlink.com 1.10,2013-07-04 12:21:00,
2013-07-04 07:36:00,71.6,67.0,30.73,ENE,61,0.0,-999.0,86,-99.99,,,0.00,weatherlink.com 1.10,2013-07-04 12:36:00,
2013-07-04 07:51:00,72.9,68.0,30.74,ENE,61,0.0,-999.0,83,-99.99,,,0.00,weatherlink.com 1.10,2013-07-04 12:51:00,
2013-07-04 08:06:00,74.2,68.0,30.74,ENE,61,0.0,-999.0,82,-99.99,,,0.00,weatherlink.com 1.10,2013-07-04 13:06:00,
2013-07-04 08:21:00,75.7,68.0,30.75,ENE,60,0.0,-999.0,78,-99.99,,,0.00,weatherlink.com 1.10,2013-07-04 13:21:00,
2013-07-04 08:36:00,77.2,69.0,30.75,ENE,60,0.0,-999.0,76,-99.99,,,0.00,weatherlink.com 1.10,2013-07-04 13:36:00,
2013-07-04 08:51:00,78.5,69.0,30.75,ENE,60,0.0,-999.0,73,-99.99,,,0.00,weatherlink.com 1.10,2013-07-04 13:51:00,
2013-07-04 09:06:00,79.9,69.0,30.75,ENE,59,0.0,-999.0,70,-99.99,,,0.00,weatherlink.com 1.10,2013-07-04 14:06:00,
2013-07-04 09:21:00,81.1,70.0,30.75,West,265,2.0,-999.0,68,-99.99,,,0.00,weatherlink.com 1.10,2013-07-04 14:21:00,
2013-07-04 09:36:00,81.8,70.0,30.75,West,263,0.0,-999.0,68,-99.99,,,0.00,weatherlink.com 1.10,2013-07-04 14:36:00,
2013-07-04 09:51:00,83.0,70.0,30.75,WSW,253,0.0,-999.0,66,-99.99,,,0.00,weatherlink.com 1.10,2013-07-04 14:51:00,
2013-07-04 10:06:00,83.6,69.0,30.75,SSW,194,2.0,-999.0,62,-99.99,,,0.00,weatherlink.com 1.10,2013-07-04 15:06:00,
2013-07-04 10:21:00,84.5,70.0,30.75,WSW,239,0.0,-999.0,61,-99.99,,,0.00,weatherlink.com 1.10,2013-07-04 15:21:00,
2013-07-04 10:36:00,85.0,69.0,30.75,West,275,0.0,-999.0,59,-99.99,,,0.00,weatherlink.com 1.10,2013-07-04 15:36:00,
2013-07-04 10:51:00,85.8,69.0,30.75,South,175,3.0,-999.0,57,-99.99,,,0.00,weatherlink.com 1.10,2013-07-04 15:51:00,
2013-07-04 11:06:00,85.9,69.0,30.75,SSE,168,0.0,-999.0,57,-99.99,,,0.00,weatherlink.com 1.10,2013-07-04 16:06:00,
2013-07-04 11:21:00,86.6,68.0,30.74,South,188,4.0,-999.0,54,-99.99,,,0.00,weatherlink.com 1.10,2013-07-04 16:21:00,
2013-07-04 11:36:00,86.5,67.0,30.74,SSW,202,0.0,-999.0,53,-99.99,,,0.00,weatherlink.com 1.10,2013-07-04 16:36:00,
2013-07-04 11:50:00,87.5,68.0,30.75,SSW,203,2.0,-999.0,53,-99.99,,,0.00,weatherlink.com 1.10,2013-07-04 16:50:00,
2013-07-04 12:06:00,88.5,68.0,30.74,ESE,105,0.0,-999.0,51,-99.99,,,0.00,weatherlink.com 1.10,2013-07-04 17:06:00,
2013-07-04 12:21:00,88.8,68.0,30.73,South,175,1.0,-999.0,50,-99.99,,,0.00,weatherlink.com 1.10,2013-07-04 17:21:00,
2013-07-04 12:36:00,89.2,65.0,30.73,South,174,1.0,-999.0,45,-99.99,,,0.00,weatherlink.com 1.10,2013-07-04 17:36:00,
2013-07-04 12:51:00,89.7,66.0,30.72,SSE,163,1.0,-999.0,46,-99.99,,,0.00,weatherlink.com 1.10,2013-07-04 17:51:00,
2013-07-04 13:06:00,90.2,67.0,30.72,South,190,4.0,-999.0,46,-99.99,,,0.00,weatherlink.com 1.10,2013-07-04 18:06:00,
2013-07-04 13:21:00,90.4,68.0,30.71,ENE,70,3.0,-999.0,48,-99.99,,,0.00,weatherlink.com 1.10,2013-07-04 18:21:00,
2013-07-04 13:36:00,89.9,67.0,30.70,East,79,0.0,-999.0,47,-99.99,,,0.00,weatherlink.com 1.10,2013-07-04 18:36:00,
2013-07-04 13:51:00,90.1,67.0,30.70,East,84,4.0,-999.0,46,-99.99,,,0.00,weatherlink.com 1.10,2013-07-04 18:51:00,
2013-07-04 14:06:00,89.9,66.0,30.70,South,174,1.0,-999.0,46,-99.99,,,0.00,weatherlink.com 1.10,2013-07-04 19:06:00,
2013-07-04 14:21:00,89.9,66.0,30.69,East,80,3.0,-999.0,45,-99.99,,,0.00,weatherlink.com 1.10,2013-07-04 19:21:00,
2013-07-04 14:37:00,91.6,66.0,30.69,South,175,2.0,-999.0,43,-99.99,,,0.00,weatherlink.com 1.10,2013-07-04 19:37:00,
2013-07-04 14:52:00,91.9,66.0,30.68,SSE,165,0.0,-999.0,43,-99.99,,,0.00,weatherlink.com 1.10,2013-07-04 19:52:00,
2013-07-04 15:07:00,92.2,65.0,30.68,NW,315,0.0,-999.0,40,-99.99,,,0.00,weatherlink.com 1.10,2013-07-04 20:07:00,
2013-07-04 15:22:00,92.7,65.0,30.67,NE,42,1.0,-999.0,40,-99.99,,,0.00,weatherlink.com 1.10,2013-07-04 20:22:00,
2013-07-04 15:37:00,92.0,65.0,30.67,WNW,289,1.0,-999.0,41,-99.99,,,0.00,weatherlink.com 1.10,2013-07-04 20:37:00,
2013-07-04 15:52:00,93.0,65.0,30.66,South,180,0.0,-999.0,40,-99.99,,,0.00,weatherlink.com 1.10,2013-07-04 20:52:00,
2013-07-04 16:07:00,91.7,64.0,30.66,ENE,77,1.0,-999.0,40,-99.99,,,0.00,weatherlink.com 1.10,2013-07-04 21:07:00,
2013-07-04 16:22:00,91.8,65.0,30.65,South,172,5.0,-999.0,41,-99.99,,,0.00,weatherlink.com 1.10,2013-07-04 21:22:00,
2013-07-04 16:37:00,92.4,65.0,30.65,SE,129,3.0,-999.0,40,-99.99,,,0.00,weatherlink.com 1.10,2013-07-04 21:37:00,
2013-07-04 16:52:00,91.9,65.0,30.64,ENE,73,1.0,-999.0,41,-99.99,,,0.00,weatherlink.com 1.10,2013-07-04 21:52:00,
2013-07-04 17:07:00,91.8,65.0,30.64,South,174,2.0,-999.0,41,-99.99,,,0.00,weatherlink.com 1.10,2013-07-04 22:07:00,
2013-07-04 17:22:00,91.4,65.0,30.64,SSE,166,5.0,-999.0,42,-99.99,,,0.00,weatherlink.com 1.10,2013-07-04 22:22:00,
2013-07-04 17:37:00,91.2,65.0,30.64,East,96,3.0,-999.0,42,-99.99,,,0.00,weatherlink.com 1.10,2013-07-04 22:37:00,
2013-07-04 17:52:00,90.5,64.0,30.64,SE,136,2.0,-999.0,42,-99.99,,,0.00,weatherlink.com 1.10,2013-07-04 22:52:00,
2013-07-04 18:07:00,90.3,64.0,30.64,SE,139,1.0,-999.0,42,-99.99,,,0.00,weatherlink.com 1.10,2013-07-04 23:07:00,
2013-07-04 18:22:00,90.9,65.0,30.64,SE,141,2.0,-999.0,42,-99.99,,,0.00,weatherlink.com 1.10,2013-07-04 23:22:00,
2013-07-04 18:37:00,91.1,65.0,30.64,SE,131,0.0,-999.0,42,-99.99,,,0.00,weatherlink.com 1.10,2013-07-04 23:37:00,
2013-07-04 18:52:00,89.8,64.0,30.65,ENE,78,3.0,-999.0,42,-99.99,,,0.00,weatherlink.com 1.10,2013-07-04 23:52:00,
2013-07-04 19:07:00,88.4,66.0,30.65,East,84,5.0,-999.0,47,-99.99,,,0.00,weatherlink.com 1.10,2013-07-05 00:07:00,
2013-07-04 19:22:00,86.6,65.0,30.66,NE,35,2.0,-999.0,49,-99.99,,,0.00,weatherlink.com 1.10,2013-07-05 00:22:00,
2013-07-04 19:37:00,83.8,65.0,30.66,NE,50,2.0,-999.0,53,-99.99,,,0.00,weatherlink.com 1.10,2013-07-05 00:37:00,
2013-07-04 19:52:00,82.3,65.0,30.66,NNE,23,4.0,-999.0,56,-99.99,,,0.00,weatherlink.com 1.10,2013-07-05 00:52:00,
2013-07-04 20:07:00,81.6,65.0,30.67,NE,36,5.0,-999.0,57,-99.99,,,0.00,weatherlink.com 1.10,2013-07-05 01:07:00,
2013-07-04 20:22:00,81.0,65.0,30.67,NE,51,1.0,-999.0,58,-99.99,,,0.00,weatherlink.com 1.10,2013-07-05 01:22:00,
2013-07-04 20:37:00,80.3,65.0,30.68,NE,43,1.0,-999.0,59,-99.99,,,0.00,weatherlink.com 1.10,2013-07-05 01:37:00,
2013-07-04 20:52:00,79.6,65.0,30.68,East,86,0.0,-999.0,61,-99.99,,,0.00,weatherlink.com 1.10,2013-07-05 01:52:00,
2013-07-04 21:07:00,79.2,65.0,30.68,East,93,2.0,-999.0,62,-99.99,,,0.00,weatherlink.com 1.10,2013-07-05 02:07:00,
2013-07-04 21:22:00,78.7,65.0,30.69,ESE,119,0.0,-999.0,62,-99.99,,,0.00,weatherlink.com 1.10,2013-07-05 02:22:00,
2013-07-04 21:37:00,78.9,65.0,30.70,ESE,107,0.0,-999.0,62,-99.99,,,0.00,weatherlink.com 1.10,2013-07-05 02:37:00,
2013-07-04 21:52:00,78.5,65.0,30.70,ESE,107,0.0,-999.0,63,-99.99,,,0.00,weatherlink.com 1.10,2013-07-05 02:52:00,
2013-07-04 22:07:00,77.8,65.0,30.71,NW,311,3.0,-999.0,65,-99.99,,,0.00,weatherlink.com 1.10,2013-07-05 03:07:00,
2013-07-04 22:22:00,77.5,65.0,30.72,NW,312,0.0,-999.0,65,-99.99,,,0.00,weatherlink.com 1.10,2013-07-05 03:22:00,
2013-07-04 22:37:00,76.9,65.0,30.72,NW,312,0.0,-999.0,66,-99.99,,,0.00,weatherlink.com 1.10,2013-07-05 03:37:00,
2013-07-04 22:52:00,76.4,65.0,30.71,NW,312,0.0,-999.0,67,-99.99,,,0.00,weatherlink.com 1.10,2013-07-05 03:52:00,
2013-07-04 23:07:00,75.8,64.0,30.71,NW,312,0.0,-999.0,68,-99.99,,,0.00,weatherlink.com 1.10,2013-07-05 04:07:00,
2013-07-04 23:22:00,75.3,64.0,30.71,NW,312,0.0,-999.0,69,-99.99,,,0.00,weatherlink.com 1.10,2013-07-05 04:22:00,
2013-07-04 23:37:00,74.3,64.0,30.71,NW,312,0.0,-999.0,70,-99.99,,,0.00,weatherlink.com 1.10,2013-07-05 04:37:00,
2013-07-04 23:52:00,73.4,63.0,30.71,NW,312,0.0,-999.0,71,-99.99,,,0.00,weatherlink.com 1.10,2013-07-05 04:52:00,